Погода в Бобруйске

Погода в Бобруйске : погода сейчас, прогноз погоды и архив. Всё, что Вы хотите узнать о погоде в Бобруйске!

Хотите узнать прогноз погоды в Бобруйске? Тогда Вам сюда: Погода в Бобруйске

Поиск расширенной информации на нашем сайте:

Другие новости

Новости СМИ2

Главная страница сайта

Новости сайта

03.07.2017

Напоминаем, что на нашем специализированном сайте Метеоцентр.Азия вы можете получить высокодетализированные автоматические прогнозы погоды по пунктам России, СНГ и мира в авиационном формате (включающие направление и скорость ветра, видимость, явления погоды, количество и форму облачности, нижнюю и верхнюю границу облачности).

Рекомендуем: для вашего бизнеса покупка офиса в бц Ринко Плаза Тимура Фрунзе ул., 24

Погода в Бобруйске - сегодня

Время (UTC), дата Ветер
(°,м/с) 
Видим.   Явления Облачность Т
(°С)
Тd
(°С)
f(%) Тe
(°С)
Pmin
(гПа)
dP
(гПа)
Po
(мм)
O2
(г/м3)
Тmin Tmax R s Состояние
почвы
21 19.07.17 тихо ()   8000 м  дымка  9/0 средняя 
[Ac und]
+14.1 +12.9 92 +19  1017.4  -0.1  749  284           
00 20.07.17 тихо ()   8000 м  дымка  5/0 средняя 
[Ac trans]
+12.6 +11.6 94 +16  1016.8  -0.8  749  286           
03 20.07.17 тихо ()   3200 м  дымка  3/0 средняя 
[Ac trans]
+9.7 +9.3 97 +10  1016.1  -0.8  748  289           
06 20.07.17 060 (СВ) 15000 м    4/0 средняя, верхняя 
[Ac trans|Ci fib]
+19.3 +13.1 67 +27  1015.2  -0.3  748  279  +9.5         
09 20.07.17 350 (С) 20000 м    8/0 средняя, верхняя 
[Ac trans|Ci sp]
+22.5 +11.4 49 +26  1014.1  -0.8  747  276           
12 20.07.17 150 (ЮВ) 20000 м    6/4 600 м верхняя 
[Cu med, cong|Ci fib]
+25 +9.8 38 +26  1012.8  -1.2  746  274           
15 20.07.17 210 (ЮЗ) 1{10}  20000 м    3/3 600 м 
[Cu hum]
+24.8 +10.3 40 +26  1011.7  -1.1  745  273           
18 20.07.17 тихо ()   20000 м    ясно 
+19.8 +13.3 66 +26  1011.7  -0.3  745  277    +25.7       
21 20.07.17 тихо ()   10 км    ясно 
+12.3 +11.2 93 +15  1012.9  0.7  746  285           
00 21.07.17 тихо ()   10 км  туман поземный  ясно 
+11.6 +11.1 97 +14  1012.8  -0.2  746  286           
03 21.07.17 тихо ()   3100 м  туман поземный  ясно 
+10 +9.6 97 +11  1012.9  0.1  746  288           
06 21.07.17 260 (З) 10 км    9/0 средняя 
[Ac trans]
+19.4 +15.8 80 +31  1012.9  0.5  746  277  +9.5         
09 21.07.17 350 (С) 20000 м    6/4 600 м верхняя 
[Cu med, cong|Ci fib]
+24.8 +14.6 53 +33  1012.8  0.2  746  273           
12 21.07.17 310 (СЗ) 8000 м  слаб. ливневой дождь  9/8 660 м кучево-дожд., средняя 
[Cb calv|Ac und]
+20.4 +18.5 89 +36  1013.3  0.4  746  276      0.6     
15 21.07.17 010 (С) 20000 м  {ливн. осадки}  8/0 средняя, верхняя 
[Ac trans|Ci sp]
+24.8 +15.4 56 +34  1012.3  -0.8  746  272      0.6     
18 21.07.17 030 (СВ) 18000 м  {ливн. осадки}  8/3 300 м средняя, верхняя 
[Sc|Ac trans|Ci sp]
+21.1 +15.8 72 +31  1012.8  0.3  746  276    +26.3  0.6     
21 21.07.17 060 (СВ) 10 км  {ливн. осадки}  10/5 300 м кучево-дожд., средняя 
[Cb calv|Ac und]
+19.5 +13.8 70 +27  1013  0.1  746  278      0.0     
00 22.07.17 040 (СВ) 5000 м  гроза, ливневой дождь  10/10 720 м кучево-дожд. 
[Cb calv]
+15.9 +15.1 95 +26  1013.2  746  281         
03 22.07.17 040 (СВ) 6000 м  слаб. ливневой дождь{гроза}  10/8 240 м кучево-дожд., средняя 
[Cb calv|Ac und]
+15.1 +14.6 97 +23  1012.2  -1.1  745  281      11     
06 22.07.17 020 (С) 8000 м  в посл. час ливневой дождь{гроза}  10/8 240 м кучево-дожд., средняя 
[Cb calv|Ac und]
+16 +15.3 96 +25  1013.4  1.3  746  281  +14.8    11     
09 22.07.17 020 (С) 15000 м    8/4 600 м средняя 
[Cu hum|Ac trans]
+18.9 +14.6 76 +27  1014.7  1.4  747  279           
12 22.07.17 030 (СВ) 20000 м    8/8 870 м 
[Cu med, cong]
+22 +12.7 56 +27  1014.8  0.4  748  276           
15 22.07.17 020 (С) 20000 м    5/5 600 м 
[Cu med, cong]
+23.6 +10.4 43 +25  1014.7  748  275           
18 22.07.17 100 (В) 20000 м    5/5 300 м 
[Sc]
+19.1 +12.4 65 +26  1015.9  0.7  748  279    +23.9       
21 22.07.17 тихо ()   8000 м  дымка  ясно 
+12.8 +12 95 +17  1017.2  0.9  749  286           
Время (UTC), дата Ветер
(°,м/с) 
Видим.   Явления Облачность Т
(°С)
Тd
(°С)
f(%) Тe
(°С)
Pmin
(гПа)
dP
(гПа)
Po
(мм)
O2
(г/м3)
Тmin Tmax R s Состояние
почвы

Для получения пояснительной информации подведите курсор к названию столбца.

ПОГОДА в Бобруйске - архив

Всё, что Вы хотите узнать о погоде в Бобруйске - удобно и подробно!

Выберите нужную дату (начиная с 1 января 2015* года) и нажмите кнопку "Найти".
Будут отображены архивные сводки погоды по пункту Бобруйск, начиная с указанной даты.


Отображать данные в формате CSV (для использования в таблицах Excel)


Внимание! Наш архив погоды предназначен исключительно для личного некоммерческого использования в познавательных целях. Если Вам необходимы официальные справки о состоянии погоды (для производственных, юридических, коммерческих и т.п. целей), обращайтесь в органы Росгидромета.

*Примечание: данная дата относится к архиву по метеостанциям СССР (Россия, СНГ, Балтия).
Архив по метеостанциям Зарубежной Европы и Азии (кроме Китая) хранится 10 дней, по другим регионам земного шара (Китай, Африка, Америка, Австралия, Океания) - 1 день.

Бобруйск - район местоположения метеостанции


Название, широта, долгота, высота метеостанции:
Бобруйск 53.2°ш. 29.2°д. 156 м над ур. моря [Беларусь]

Дополнительная информация

В oтличие oт бoльшинства пoгoдных сайтoв мы публикуем пoдрoбную метеoинфoрмацию в детальнoм прoфессиoнальнoм фoрмате.

Характеристики температуры и влажнoсти вoздуха измеряются на высoте 2 м в тени вдали oт зданий и деревьев.
Скoрoсть ветра измеряется на высoте 10 м (на урoвне рoста челoвека скoрoсть ветра ниже в 1.5-2 раза). Если метеoстанция нахoдится в гoрoде или в лесу, тo скoрoсть ветра занижена на 2-4 м/с пo сравнению с oткрытым местoм. Скoрoсть ветра над акватoриями крупных рек и oзёр, а также на вершинах хoлмoв на 2-5 м/с выше, чем в oбычных услoвиях.
Атмoсфернoе давление в разных тoчках местнoсти мoжет значительнo oтличаться oт давления на метеoстанции, в зависимoсти oт услoвий рельефа (при пoдъёме на 10 м давление пoнижается примернo на 1 мм рт.ст.).